Date,TemperatureHighF,TemperatureAvgF,TemperatureLowF,DewpointHighF,DewpointAvgF,DewpointLowF,HumidityHigh,HumidityAvg,HumidityLow,PressureMaxIn,PressureMinIn,WindSpeedMaxMPH,WindSpeedAvgMPH,GustSpeedMaxMPH,PrecipitationSumIn
2013-11-1,42,39,36,40,37,34,95,94,93,29.77,29.23,7,0,7,0.00
2013-11-2,38,35,32,36,33,30,95,94,91,30.16,29.76,4,0,4,0.00
2013-11-3,41,36,33,36,33,31,95,88,78,30.27,30.11,22,5,22,0.00
2013-11-4,44,42,39,41,38,35,93,86,79,30.14,29.89,21,6,22,0.00
2013-11-5,45,36,29,36,32,27,94,83,58,30.25,29.99,9,0,9,0.00
2013-11-6,32,30,27,31,28,24,94,92,89,30.12,29.90,0,0,0,0.00
2013-11-7,30,28,26,28,25,24,91,89,86,30.20,30.11,10,0,10,0.00
2013-11-8,35,28,19,32,25,16,94,88,82,30.24,29.74,18,3,18,0.00
2013-11-9,35,34,32,33,32,30,94,92,88,29.99,29.63,12,2,13,0.00
2013-11-10,32,32,31,31,30,30,94,93,93,30.23,29.99,8,1,8,0.00
2013-11-11,31,20,19,30,17,16,93,87,78,30.64,30.06,5,1,14,0.00
2013-11-12,25,19,14,16,12,10,88,74,53,30.72,30.46,9,1,9,0.00
2013-11-13,44,31,18,32,24,12,82,74,59,30.46,29.82,14,2,18,0.00
2013-11-14,39,35,31,33,30,28,90,84,77,29.82,29.72,6,0,7,0.00
2013-11-15,47,37,28,39,33,26,94,85,70,29.87,29.79,10,1,10,0.00
2013-11-16,40,39,38,35,34,33,85,83,81,29.79,29.74,11,3,11,0.00
2013-11-17,49,40,32,47,38,28,94,90,84,29.49,29.23,5,2,17,0.00
2013-11-18,31,26,24,28,22,19,90,83,79,30.27,29.51,5,3,20,0.00
2013-11-19,34,30,17,25,22,15,91,72,62,30.35,30.10,20,6,20,0.00
2013-11-20,38,34,31,31,27,23,92,76,59,30.11,30.05,20,6,21,0.00
2013-11-21,33,30,24,31,28,22,94,93,91,30.43,30.09,9,1,9,0.00
2013-11-22,28,22,13,22,17,9,91,82,59,30.52,30.38,9,1,10,0.00
2013-11-23,13,9,6,10,6,3,88,86,82,30.74,30.48,9,1,9,0.00
2013-11-24,22,17,8,15,10,5,87,74,68,30.69,29.98,20,3,20,0.00
2013-11-25,33,28,22,27,23,15,88,82,75,29.98,29.85,15,1,16,0.00
2013-11-26,25,15,11,21,12,7,89,84,74,30.29,29.96,11,1,13,0.00
2013-11-27,24,16,9,18,13,6,89,85,71,30.35,30.21,5,0,6,0.00
2013-11-28,23,18,16,18,15,13,89,86,80,30.38,30.18,4,0,4,0.00
2013-11-29,23,22,20,19,17,16,84,83,82,30.46,30.30,16,4,16,0.00
2013-11-30,32,27,23,27,23,18,92,84,78,30.30,30.07,11,1,11,0.00